GW4692 Weather Reports


time (UTC)temp
F
wind
direction
speed
knots
gust
knots
rain 1hr
in
rain 24hr
in
rain mn
in
humidity
%
barometer
mb
20260506013100 54 138 1.7 5.2 0.01 0.43 0.01 74 1002.6
20260506011615 54 126 0.9 5.2 0.01 0.43 0.01 74 1002.7
20260506010053 54 121 1.7 8.7 0.01 0.43 0.01 74 1002.7
20260506004546 54 126 2.6 8.7 0.01 0.43 0.01 74 1003.0
20260506003042 54 102 2.6 7.8 0.00 0.43 0.00 74 1003.3
20260506001541 54 91 1.7 4.3 0.00 0.43 0.00 74 1003.3
20260506000043 54 110 1.7 4.3 0.00 0.43 0.00 74 1003.4
20260505234536 54 130 1.7 3.5 0.00 0.43 0.00 74 1003.7
20260505233035 54 112 0.9 3.5 0.00 0.43 0.00 74 1003.8
20260505231539 54 76 2.6 3.5 0.00 0.43 0.00 74 1003.7
20260505230034 54 90 0.9 2.6 0.00 0.43 0.00 74 1004.0
20260505224531 54 90 1.7 3.5 0.00 0.43 0.00 74 1004.0
20260505223028 54 101 0.9 2.6 0.00 0.43 0.00 74 1004.0
20260505221528 54 116 1.7 3.5 0.00 0.43 0.00 74 1004.2
20260505220043 54 103 1.7 3.5 0.00 0.43 0.00 74 1004.2
20260505214531 54 101 1.7 3.5 0.00 0.43 0.43 74 1004.4
20260505213024 54 116 0.9 2.6 0.00 0.43 0.43 73 1004.5
20260505211523 54 137 0.9 3.5 0.00 0.43 0.43 73 1004.7
20260505210022 54 112 1.7 3.5 0.01 0.43 0.43 73 1004.7
20260505204524 54 81 1.7 4.3 0.01 0.43 0.43 73 1004.8
20260505203020 54 132 0.0 2.6 0.02 0.43 0.43 73 1004.9
20260505201520 54 174 0.0 1.7 0.02 0.43 0.43 73 1004.9
20260505200019 54 121 0.9 2.6 0.01 0.42 0.42 73 1004.8
20260505194522 54 146 0.0 1.7 0.02 0.42 0.42 73 1004.8
20260505193031 54 126 0.0 1.7 0.01 0.41 0.41 73 1004.7
20260505191522 54 157 0.9 4.3 0.01 0.41 0.41 73 1004.6
20260505190021 54 103 0.9 3.5 0.01 0.41 0.41 73 1004.4
20260505184517 54 134 2.6 7.0 0.00 0.40 0.40 73 1004.2
20260505183018 54 105 3.5 7.0 0.00 0.40 0.40 73 1004.3
20260505181515 54 116 3.5 7.0 0.00 0.40 0.40 73 1004.3
20260505180016 54 131 2.6 5.2 0.00 0.40 0.40 73 1004.2
20260505174515 54 126 2.6 7.0 0.00 0.40 0.40 73 1004.2
20260505173014 54 94 1.7 5.2 0.01 0.40 0.40 73 1004.2
20260505171513 54 96 4.3 7.8 0.01 0.40 0.40 73 1004.3
20260505170012 54 126 1.7 4.3 0.02 0.40 0.40 73 1004.2
20260505164512 54 104 1.7 7.0 0.04 0.40 0.40 73 1004.3
20260505163010 54 154 3.5 7.0 0.04 0.39 0.39 73 1004.3
20260505161511 54 116 2.6 9.6 0.05 0.39 0.39 73 1004.3
20260505153008 54 75 2.6 7.0 0.01 0.35 0.35 73 1004.4
20260505151509 55 61 2.6 4.3 0.01 0.35 0.35 73 1004.5
20260505124501 54 82 2.6 7.0 0.00 0.33 0.33 71 1004.9
20260505123101 54 57 2.6 7.8 0.00 0.33 0.33 71 1005.0
20260505121559 54 50 1.7 4.3 0.02 0.33 0.33 72 1005.0
20260505120107 54 39 1.7 5.2 0.02 0.33 0.33 72 1004.9
20260505114558 54 55 2.6 7.0 0.03 0.33 0.33 72 1005.0
20260505113114 53 230 0.0 2.6 0.04 0.33 0.33 72 1005.1
20260505111559 53 306 0.9 2.6 0.04 0.31 0.31 72 1005.1
20260505101553 53 328 0.0 2.6 0.03 0.28 0.28 71 1005.2
20260505100051 54 302 0.9 2.6 0.03 0.27 0.27 70 1005.2
20260505094549 54 285 0.9 4.3 0.02 0.26 0.26 70 1005.3
20260505093052 54 38 0.0 1.7 0.01 0.24 0.24 70 1005.3
20260505091548 54 40 0.9 2.6 0.01 0.24 0.24 70 1005.1
20260505090146 53 40 1.7 6.1 0.00 0.24 0.24 69 1005.0
20260505084551 53 49 1.7 6.1 0.00 0.24 0.24 69 1005.0
20260505083050 53 63 3.5 7.8 0.02 0.24 0.24 70 1004.7
20260505081548 53 57 4.3 8.7 0.02 0.24 0.24 70 1004.8
20260505080042 53 36 0.9 7.0 0.06 0.24 0.24 70 1004.8
20260505074541 54 26 1.7 6.1 0.11 0.24 0.24 71 1004.6
20260505073040 53 45 6.1 9.6 0.13 0.22 0.22 71 1004.7
20260505071539 53 359 3.5 7.8 0.15 0.21 0.21 71 1004.4
20260505070044 53 357 2.6 5.2 0.15 0.17 0.17 72 1004.6
20260505064536 53 346 2.6 6.1 0.12 0.13 0.13 71 1004.6
20260505063037 53 301 3.5 6.1 0.09 0.09 0.09 71 1004.7
20260505061531 53 274 1.7 5.2 0.06 0.06 0.06 70 1004.9
20260505060035 53 274 2.6 5.2 0.02 0.02 0.02 69 1004.8
20260505054528 53 267 3.5 6.1 0.01 0.01 0.01 69 1004.5
20260505053030 54 279 2.6 6.1 0.00 0.00 0.00 71 1004.2
20260505051523 54 305 0.9 4.3 0.00 0.00 0.00 74 1004.0
20260505041517 55 288 0.9 1.7 0.00 0.00 0.00 76 1003.8
20260505040016 55 288 0.0 1.7 0.00 0.00 0.00 76 1003.8
20260505034514 56 190 0.0 0.0 0.00 0.00 0.00 75 1003.9
20260505033013 56 190 0.0 0.0 0.00 0.00 0.00 75 1004.0
20260505031515 56 184 0.0 0.9 0.00 0.00 0.00 75 1004.2
20260505030008 56 358 0.0 0.0 0.00 0.00 0.00 73 1004.3
20260505024505 56 358 0.0 0.0 0.00 0.00 0.00 71 1004.5
20260505023004 56 358 0.0 0.0 0.00 0.00 0.00 70 1004.6
20260505021502 56 358 0.0 1.7 0.00 0.00 0.00 71 1004.8
20260505020001 56 348 0.0 1.7 0.00 0.00 0.00 71 1004.9
20260505014559 56 317 2.6 4.3 0.00 0.00 0.00 71 1005.0